Regional Weather Roundup
Issued by NWS

Home | Current Version | Previous Version | Text Only | Print | Product List | Glossary On
Versions: 1 2 3 4 5 6 7 8 9 10 11 12 13 14 15 16 17 18 19 20 21 22 23 24 25 26 27 28 29 30 31 32 33 34 35 36 37 38 39 40 41 42 43 44 45 46 47 48 49 50
000
ASUS44 KOUN 251210
RWROK

WEATHER ROUNDUP FOR OKLAHOMA
NATIONAL WEATHER SERVICE NORMAN OK
700 AM CDT MON MAY 25 2015

NOTE: "FAIR" INDICATES FEW OR NO CLOUDS BELOW 12,000 FEET WITH NO
      SIGNIFICANT WEATHER AND/OR OBSTRUCTIONS TO VISIBILITY.

OKZ001>007-009>012-014-015-017-251300-
NORTHWEST OKLAHOMA AND THE PANHANDLE

CITY           SKY/WX    TMP DP  RH WIND       PRES   REMARKS
GAGE           CLEAR     63  61  93 S9        29.80S
6HR MIN TEMP:  63; 6HR MAX TEMP:  65;

GUYMON         CLEAR     49  47  93 CALM      29.81R
ENID/WOODRING  LGT RAIN  66  66 100 S8        29.81  FOG
$$

OKZ016-021>023-033>039-044-045-251300-
SOUTHWEST OKLAHOMA

CITY           SKY/WX    TMP DP  RH WIND       PRES   REMARKS
LAWTON/REGL    CLOUDY    69  67  93 S9        29.86R
6HR MIN TEMP:  67; 6HR MAX TEMP:  69;

LAWTON/FT SILL CLOUDY    69  69 100 S9        29.85R
FREDERICK      CLOUDY    67  66  97 S10       29.83R FOG
CLINTON        CLOUDY    67  64  90 S15       29.85S
HOBART         CLOUDY    65  65 100 S15       29.85R FOG
ALTUS AFB      CLEAR     64  64 100 SE7       29.84R
$$

OKZ018>020-024>031-251300-
CENTRAL OKLAHOMA

CITY           SKY/WX    TMP DP  RH WIND       PRES   REMARKS
OKLAHOMA CITY  CLOUDY    68  66  93 S14       29.86R
6HR MIN TEMP:  64; 6HR MAX TEMP:  68;

OKC/WILEY POST CLOUDY    69  66  90 S15G23    29.85R
STILLWATER     CLOUDY    68  66  93 S9        29.85R
GUTHRIE        CLOUDY    69  66  90 S9        29.84R
$$

OKZ008-013-054>072-251300-
NORTHEAST OKLAHOMA

CITY           SKY/WX    TMP DP  RH WIND       PRES   REMARKS
TULSA          CLOUDY    67  66  97 S8        29.88S
6HR MIN TEMP:  62; 6HR MAX TEMP:  67;

TULSA/JONES    CLOUDY    67  65  93 S8        29.89R
PONCA CITY     CLOUDY    68  66  93 S10       29.83S
BARTLESVILLE   CLOUDY    65  65 100 S6        29.89S FOG
MUSKOGEE       FOG       64  63  96 S7        29.93R VSB 1/4
$$

OKZ032-040>043-046>053-073>077-251300-
SOUTH CENTRAL/SOUTHEAST OKLAHOMA

CITY           SKY/WX    TMP DP  RH WIND       PRES   REMARKS
ARDMORE/DWNTWN CLOUDY    70  68  94 S7        29.89R
MCALESTER      CLOUDY    70  68  93 SE6       29.92R
$$



USA.gov is the U.S. government's official web portal to all federal, state and local government web resources and services.